This is the latest recevied weather packets stored in our database for station/object KC3AWA. If no packets are shown the sender has not sent any weather packets the latest 10 day(s).
| Time | Temp. | Humidity | Pressure | Rain* | Wind** | Luminosity | Snow |
|---|---|---|---|---|---|---|---|
| 1777940315 | 18.33° C | 56% | 1006.5 hPa | 0 mm | - | 3 W/m² | - |
| 1777940012 | 18.89° C | 56% | 1006.5 hPa | 0 mm | - | 5 W/m² | - |
| 1777939709 | 18.89° C | 56% | 1006.6 hPa | 0 mm | - | 7 W/m² | - |
| 1777939407 | 18.89° C | 55% | 1006.5 hPa | 0 mm | - | 9 W/m² | - |
| 1777939103 | 18.89° C | 55% | 1006.6 hPa | 0 mm | - | 11 W/m² | - |
| 1777938801 | 18.89° C | 54% | 1006.2 hPa | 0 mm | - | 13 W/m² | - |
| 1777938497 | 19.44° C | 54% | 1006.4 hPa | 0 mm | - | 15 W/m² | - |
| 1777938195 | 19.44° C | 53% | 1006.2 hPa | 0 mm | - | 21 W/m² | - |
| 1777937891 | 19.44° C | 52% | 1006.5 hPa | 0 mm | - | 30 W/m² | - |
| 1777937587 | 20° C | 52% | 1006.5 hPa | 0 mm | - | 29 W/m² | - |
| 1777937284 | 20° C | 52% | 1006.6 hPa | 0 mm | - | 32 W/m² | - |
| 1777936981 | 20° C | 51% | 1006.6 hPa | 0 mm | - | 44 W/m² | - |
| 1777936678 | 20° C | 50% | 1006.7 hPa | 0 mm | - | 32 W/m² | - |
| 1777936374 | 20° C | 52% | 1006.6 hPa | 0 mm | - | 32 W/m² | - |
| 1777936070 | 20° C | 50% | 1006.9 hPa | 0 mm | - | 27 W/m² | - |
| 1777935768 | 20° C | 49% | 1006.6 hPa | 0 mm | - | 28 W/m² | - |
| 1777935467 | 20° C | 48% | 1006.8 hPa | 0 mm | - | 36 W/m² | - |
| 1777935163 | 20.56° C | 47% | 1006.7 hPa | 0 mm | - | 54 W/m² | - |
| 1777934860 | 20.56° C | 46% | 1006.8 hPa | 0 mm | - | 31 W/m² | - |
| 1777934557 | 20.56° C | 46% | 1006.9 hPa | 0 mm | - | 55 W/m² | - |
| 1777934253 | 21.11° C | 45% | 1006.9 hPa | 0 mm | - | 53 W/m² | - |
| 1777933949 | 21.11° C | 44% | 1006.8 hPa | 0 mm | - | 66 W/m² | - |
| 1777933647 | 21.11° C | 46% | 1006.7 hPa | 0 mm | - | 121 W/m² | - |
| 1777933343 | 21.11° C | 44% | 1006.6 hPa | 0 mm | - | 136 W/m² | - |
| 1777933041 | 21.11° C | 44% | 1006.7 hPa | 0 mm | - | 108 W/m² | - |
* Rain latest hour (hover to see other rain measurements)
** Current wind speed in m/s (hover to see current wind gust speed)